Location: Michelbach Markt
(48.1000°N, 15.7500°E)
Time: 21:35:00
(UTC+01:00)

ISS - Visible Passes

Search period start: 03 December 2021 00:00
Search period end: 13 December 2021 00:00
Orbit: 417 x 423 km, 51.6° (Epoch: 03 December)

Date Brightness Start Highest point End Pass type
(mag) Time Alt. Az. Time Alt. Az. Time Alt. Az.
03 Dec -3.6 17:11:21 10° WNW 17:14:43 57° NNE 17:17:09 17° E visible
03 Dec -1.5 18:48:17 10° WNW 18:50:09 26° W 18:50:09 26° W visible
04 Dec -3.3 18:00:58 10° WNW 18:04:20 60° SSW 18:05:09 43° SSE visible
05 Dec -3.7 17:13:41 10° WNW 17:17:06 85° SSW 17:20:20 11° ESE visible
05 Dec -1.1 18:51:08 10° W 18:53:20 18° SW 18:53:20 18° SW visible
06 Dec -1.7 18:03:32 10° W 18:06:28 27° SW 18:08:47 13° SSE visible
07 Dec -2.4 17:16:06 10° WNW 17:19:20 40° SSW 17:22:31 10° SE visible
08 Dec -0.5 18:07:11 10° WSW 18:08:23 12° SW 18:09:36 10° SSW visible
09 Dec -0.7 17:18:59 10° W 17:21:21 18° SW 17:23:42 10° S visible
12 Dec 0.1 16:35:05 10° WSW 16:36:12 11° SW 16:37:18 10° SSW visible
